This is the latest recevied weather packets stored in our database for station/object AG7BI. If no packets are shown the sender has not sent any weather packets the latest 10 day(s).
| Time | Temp. | Humidity | Pressure | Rain* | Wind** | Luminosity | Snow |
|---|---|---|---|---|---|---|---|
| 1777877752 | 17.22° C | 43% | 1009.6 hPa | 0 mm | - | - | - |
| 1777877452 | 16.67° C | 43% | 1009.6 hPa | 0 mm | - | - | - |
| 1777877152 | 16.67° C | 44% | 1009.8 hPa | 0 mm | - | - | - |
| 1777876852 | 16.67° C | 44% | 1009.8 hPa | 0 mm | - | - | - |
| 1777876552 | 16.11° C | 49% | 1009.7 hPa | 0 mm | - | - | - |
| 1777876252 | 15.56° C | 52% | 1009.8 hPa | 0 mm | - | - | - |
| 1777875952 | 15.56° C | 49% | 1009.8 hPa | 0 mm | - | - | - |
| 1777875652 | 15° C | 51% | 1009.8 hPa | 0 mm | - | - | - |
| 1777875352 | 15° C | 53% | 1009.8 hPa | 0 mm | - | - | - |
| 1777875052 | 15° C | 54% | 1009.9 hPa | 0 mm | - | - | - |
| 1777874752 | 15° C | 52% | 1009.9 hPa | 0 mm | - | - | - |
| 1777874452 | 15° C | 53% | 1010 hPa | 0 mm | - | - | - |
| 1777874152 | 15.56° C | 51% | 1009.8 hPa | 0 mm | - | - | - |
| 1777873852 | 16.11° C | 51% | 1010 hPa | 0 mm | - | - | - |
| 1777873552 | 16.11° C | 48% | 1009.9 hPa | 0 mm | - | - | - |
| 1777873252 | 16.67° C | 50% | 1010 hPa | 0 mm | - | - | - |
| 1777872952 | 16.67° C | 50% | 1010 hPa | 0 mm | - | - | - |
| 1777872652 | 16.67° C | 46% | 1009.8 hPa | 0 mm | - | - | - |
| 1777872352 | 17.22° C | 46% | 1009.9 hPa | 0 mm | - | - | - |
| 1777872052 | 17.22° C | 48% | 1010 hPa | 0 mm | - | - | - |
| 1777871752 | 17.22° C | 48% | 1009.8 hPa | 0 mm | - | - | - |
| 1777871452 | 17.78° C | 46% | 1009.8 hPa | 0 mm | - | - | - |
| 1777871152 | 17.78° C | 45% | 1009.7 hPa | 0 mm | - | - | - |
| 1777870852 | 17.78° C | 45% | 1009.8 hPa | 0 mm | - | - | - |
| 1777870552 | 17.78° C | 46% | 1009.9 hPa | 0 mm | - | - | - |
* Rain latest hour (hover to see other rain measurements)
** Current wind speed in m/s (hover to see current wind gust speed)